User: anonymous   Login
Location: *
(28.2408°N, 53.4600°E)
Time: 07:46:13
(UTC+00:00)
Language:

Cosmos 1980 - Orbit

View from above orbital plane
View from above orbital plane
View from above satellite
View from above satellite

Ground track
Ground track

The orbit data is extracted from the following two-line orbital elements,

1 19649U 88102A   19317.66531922 -.00000163  00000-0 -59946-4 0  9992
2 19649  71.0013  19.8657 0003623  36.3439 323.7929 14.14701547598956
Epoch (UTC): 13 November 2019 15:58:03
Eccentricity: 0.0003623
inclination: 71.0013°
perigee height: 841 km
apogee height: 846 km
right ascension of ascending node: 19.8657°
argument of perigee: 36.3439°
revolutions per day: 14.14701547
mean anomaly at epoch: 323.7929°
orbit number at epoch: 59895

The dashed part of the orbit path shows where the satellite is in the earth's shadow,  

DLR